• In Russia
  • List of Countries
  • For 7 days
  • Water Temperature
  • Satellite Maps
  • Weather Map
  • Weather Widgets
  • user-avatar
    Login

    Hourly Weather Ganja

    Today, 22 May, Monday

    Time Temperature Precipitation Wind Pressure Humidity
    00:00 +14°C° 0 mm 2 mps 720 mmHg 79%
    01:00 +14°C° 0 mm 2 mps 720 mmHg 79%
    02:00 +13°C° 0 mm 2 mps 720 mmHg 78%
    03:00 +13°C° 0 mm 2 mps 720 mmHg 79%
    04:00 +14°C° 0 mm 2 mps 720 mmHg 76%
    05:00 +15°C° 0 mm 1 mps 720 mmHg 73%
    06:00 +16°C° 0 mm 1 mps 721 mmHg 71%
    07:00 +18°C° 0 mm 1 mps 721 mmHg 64%
    08:00 +20°C° 0 mm 1 mps 721 mmHg 57%
    09:00 +22°C° 0 mm 1 mps 721 mmHg 51%
    10:00 +23°C° 0.1 mm 2 mps 721 mmHg 49%
    11:00 +24°C° 0.1 mm 2 mps 721 mmHg 46%
    12:00 +25°C° 0.1 mm 2 mps 721 mmHg 44%
    13:00 +25°C° 0.2 mm 2 mps 720 mmHg 44%
    14:00 +25°C° 0.2 mm 3 mps 720 mmHg 44%
    15:00 +26°C° 0 mm 3 mps 720 mmHg 45%
    16:00 +25°C° 0.2 mm 3 mps 720 mmHg 50%
    17:00 +24°C° 0.2 mm 2 mps 720 mmHg 54%
    18:00 +24°C° 0.2 mm 2 mps 720 mmHg 59%
    19:00 +21°C° 0.4 mm 2 mps 721 mmHg 63%
    20:00 +19°C° 0.4 mm 2 mps 721 mmHg 67%
    21:00 +17°C° 0.4 mm 2 mps 721 mmHg 71%
    22:00 +16°C° 0.3 mm 2 mps 721 mmHg 73%
    23:00 +16°C° 0.3 mm 2 mps 721 mmHg 76%

    Tomorrow, 23 May, Tuesday

    Time Temperature Precipitation Wind Pressure Humidity
    00:00 +15°C° 0.3 mm 2 mps 722 mmHg 78%
    01:00 +15°C° 0.1 mm 1 mps 722 mmHg 79%
    02:00 +14°C° 0.1 mm 1 mps 722 mmHg 81%
    03:00 +14°C° 0.1 mm 1 mps 722 mmHg 82%
    04:00 +15°C° 0 mm 1 mps 722 mmHg 78%
    05:00 +16°C° 0 mm 1 mps 722 mmHg 75%
    06:00 +18°C° 0 mm 1 mps 722 mmHg 71%
    07:00 +19°C° 0 mm 2 mps 722 mmHg 62%
    08:00 +20°C° 0 mm 2 mps 721 mmHg 53%
    09:00 +23°C° 0 mm 2 mps 721 mmHg 44%
    10:00 +25°C° 0 mm 2 mps 721 mmHg 41%
    11:00 +26°C° 0 mm 2 mps 721 mmHg 39%
    12:00 +27°C° 0 mm 2 mps 721 mmHg 37%
    13:00 +27°C° 0.2 mm 2 mps 721 mmHg 37%
    14:00 +27°C° 0.2 mm 2 mps 720 mmHg 37%
    15:00 +27°C° 0.2 mm 2 mps 720 mmHg 38%
    16:00 +26°C° 0.5 mm 2 mps 721 mmHg 43%
    17:00 +25°C° 0.5 mm 2 mps 721 mmHg 49%
    18:00 +24°C° 0.5 mm 2 mps 721 mmHg 54%
    19:00 +21°C° 0.9 mm 2 mps 721 mmHg 60%
    20:00 +19°C° 0.9 mm 2 mps 722 mmHg 67%
    21:00 +18°C° 0.9 mm 1 mps 722 mmHg 73%
    22:00 +18°C° 0.6 mm 1 mps 722 mmHg 73%
    23:00 +16°C° 0.6 mm 1 mps 722 mmHg 74%

    Day after tomorrow, 24 May, Wednesday

    Time Temperature Precipitation Wind Pressure Humidity
    00:00 +16°C° 0.6 mm 1 mps 722 mmHg 74%
    01:00 +16°C° 0.1 mm 1 mps 722 mmHg 75%
    02:00 +15°C° 0.1 mm 1 mps 722 mmHg 76%
    03:00 +15°C° 0.1 mm 1 mps 722 mmHg 77%
    04:00 +16°C° 0.2 mm 1 mps 722 mmHg 75%
    05:00 +16°C° 0.2 mm 1 mps 722 mmHg 74%
    06:00 +17°C° 0.2 mm 2 mps 723 mmHg 73%
    07:00 +18°C° 0.2 mm 2 mps 723 mmHg 70%
    08:00 +19°C° 0.2 mm 3 mps 723 mmHg 66%
    09:00 +20°C° 0.2 mm 3 mps 723 mmHg 63%
    10:00 +19°C° 0.5 mm 3 mps 723 mmHg 66%
    11:00 +19°C° 0.5 mm 3 mps 723 mmHg 68%
    12:00 +19°C° 0.5 mm 3 mps 722 mmHg 70%
    13:00 +20°C° 0.2 mm 3 mps 722 mmHg 67%
    14:00 +21°C° 0.2 mm 3 mps 722 mmHg 63%
    15:00 +22°C° 0.2 mm 3 mps 721 mmHg 60%
    16:00 +21°C° 0.1 mm 2 mps 722 mmHg 61%
    17:00 +21°C° 0.1 mm 2 mps 722 mmHg 62%
    18:00 +21°C° 0.1 mm 2 mps 722 mmHg 63%
    19:00 +19°C° 0.2 mm 2 mps 722 mmHg 67%
    20:00 +18°C° 0.2 mm 2 mps 723 mmHg 71%
    21:00 +16°C° 0.2 mm 2 mps 723 mmHg 74%
    22:00 +16°C° 0.1 mm 2 mps 723 mmHg 74%
    23:00 +16°C° 0.1 mm 2 mps 724 mmHg 74%

    25 May, Thursday

    Time Temperature Precipitation Wind Pressure Humidity
    00:00 +16°C° 0.1 mm 2 mps 724 mmHg 73%
    01:00 +15°C° 0 mm 2 mps 724 mmHg 74%
    02:00 +14°C° 0 mm 2 mps 724 mmHg 74%
    03:00 +14°C° 0 mm 2 mps 724 mmHg 75%
    04:00 +15°C° 0 mm 2 mps 724 mmHg 73%
    05:00 +15°C° 0 mm 2 mps 724 mmHg 72%
    06:00 +16°C° 0 mm 2 mps 724 mmHg 71%
    07:00 +18°C° 0 mm 3 mps 724 mmHg 63%
    08:00 +19°C° 0 mm 3 mps 725 mmHg 55%
    09:00 +21°C° 0 mm 3 mps 725 mmHg 47%
    10:00 +22°C° 0 mm 3 mps 724 mmHg 45%
    11:00 +24°C° 0 mm 2 mps 724 mmHg 42%
    12:00 +25°C° 0 mm 2 mps 724 mmHg 39%
    13:00 +25°C° 0 mm 2 mps 724 mmHg 39%
    14:00 +26°C° 0 mm 2 mps 724 mmHg 38%
    15:00 +26°C° 0 mm 2 mps 723 mmHg 37%
    16:00 +25°C° 0 mm 2 mps 724 mmHg 41%
    17:00 +24°C° 0 mm 2 mps 724 mmHg 44%
    18:00 +24°C° 0 mm 2 mps 724 mmHg 47%
    19:00 +21°C° 0 mm 2 mps 725 mmHg 51%
    20:00 +19°C° 0 mm 1 mps 725 mmHg 55%
    21:00 +16°C° 0 mm 1 mps 726 mmHg 59%
    22:00 +15°C° 0 mm 1 mps 726 mmHg 63%
    23:00 +15°C° 0 mm 1 mps 726 mmHg 66%

    26 May, Friday

    Time Temperature Precipitation Wind Pressure Humidity
    00:00 +14°C° 0 mm 1 mps 726 mmHg 70%
    01:00 +14°C° 0 mm 1 mps 726 mmHg 74%
    02:00 +13°C° 0 mm 1 mps 726 mmHg 78%
    03:00 +13°C° 0 mm 1 mps 726 mmHg 82%
    04:00 +14°C° 0 mm 1 mps 726 mmHg 79%
    05:00 +15°C° 0 mm 1 mps 726 mmHg 76%
    06:00 +16°C° 0 mm 1 mps 726 mmHg 73%
    07:00 +19°C° 0 mm 1 mps 726 mmHg 64%
    08:00 +21°C° 0 mm 1 mps 726 mmHg 56%
    09:00 +23°C° 0 mm 1 mps 726 mmHg 47%
    10:00 +24°C° 0 mm 1 mps 726 mmHg 44%
    11:00 +25°C° 0 mm 1 mps 725 mmHg 42%
    12:00 +26°C° 0 mm 2 mps 725 mmHg 39%
    13:00 +26°C° 0 mm 2 mps 725 mmHg 39%
    14:00 +27°C° 0 mm 2 mps 724 mmHg 39%
    15:00 +27°C° 0 mm 2 mps 724 mmHg 39%
    16:00 +26°C° 0 mm 2 mps 724 mmHg 44%
    17:00 +26°C° 0 mm 2 mps 724 mmHg 48%
    18:00 +25°C° 0 mm 2 mps 724 mmHg 52%
    19:00 +23°C° 0 mm 2 mps 724 mmHg 57%
    20:00 +20°C° 0 mm 2 mps 724 mmHg 61%
    21:00 +18°C° 0 mm 2 mps 725 mmHg 66%
    22:00 +18°C° 0 mm 2 mps 725 mmHg 69%
    23:00 +17°C° 0 mm 2 mps 725 mmHg 71%

    27 May, Saturday

    Time Temperature Precipitation Wind Pressure Humidity
    00:00 +16°C° 0 mm 2 mps 725 mmHg 74%
    01:00 +16°C° 0 mm 1 mps 724 mmHg 77%
    02:00 +15°C° 0 mm 1 mps 724 mmHg 80%
    03:00 +13°C° 0 mm 0 mps 724 mmHg 84%
    04:00 +16°C° 0 mm 1 mps 724 mmHg 81%
    05:00 +18°C° 0 mm 1 mps 724 mmHg 77%
    06:00 +19°C° 0 mm 1 mps 724 mmHg 74%
    07:00 +20°C° 0 mm 1 mps 724 mmHg 68%
    08:00 +22°C° 0 mm 1 mps 724 mmHg 62%
    09:00 +23°C° 0 mm 1 mps 724 mmHg 56%
    10:00 +24°C° 0.1 mm 2 mps 723 mmHg 52%
    11:00 +25°C° 0.1 mm 2 mps 723 mmHg 48%
    12:00 +26°C° 0.1 mm 3 mps 723 mmHg 44%
    13:00 +27°C° 0.5 mm 2 mps 722 mmHg 43%
    14:00 +27°C° 0.5 mm 2 mps 721 mmHg 43%
    15:00 +27°C° 0.5 mm 2 mps 721 mmHg 43%
    16:00 +26°C° 0.5 mm 2 mps 721 mmHg 49%
    17:00 +25°C° 0.5 mm 2 mps 720 mmHg 55%
    18:00 +24°C° 0.5 mm 2 mps 720 mmHg 61%
    19:00 +22°C° 0.6 mm 1 mps 720 mmHg 67%
    20:00 +20°C° 0.6 mm 1 mps 720 mmHg 74%
    21:00 +18°C° 0.6 mm 1 mps 721 mmHg 80%
    22:00 +18°C° 0.2 mm 1 mps 720 mmHg 80%
    23:00 +18°C° 0.2 mm 1 mps 720 mmHg 79%
    Show more